Weather History for CYYT - March, 2013

Change the Weather History Date:

Friday, March 22, 2013

  Actual Average Record
Temperature  
Mean Temperature 37 °F -  
Max Temperature 45 °F 39 °F 45 °F (2013)
Min Temperature 29 °F 26 °F 12 °F (2007)
Degree Days  
Heating Degree Days 28    
Moisture  
Dew Point 32 °F    
Average Humidity 91    
Maximum Humidity 100    
Minimum Humidity 65    
Precipitation  
Precipitation 0.20 in 0.15 in - ()
Sea Level Pressure  
Sea Level Pressure 29.56 in    
Wind  
Wind Speed 19 mph ()    
Max Wind Speed 32 mph    
Max Gust Speed 43 mph    
Visibility 7.7 miles    
Events Fog , Rain , Snow    
Averages and records for this station are not official NWS values.
T = Trace of Precipitation, MM = Missing Value Source: Averaged Metar Reports

Daily Weather History Graph

Daily Weather History Graph

Search for Another Location

Airport or City:

Trip Planner

Search our weather history database for the weather conditions in past years. The results will help you decide how hot, cold, wet, or windy it might be!

Date:

Astronomy

Mar. 22, 2013 Rise Set
Actual Time 6:59 AM NDT 7:16 PM NDT
Civil Twilight 6:28 AM NDT 7:47 PM NDT
Nautical Twilight 5:52 AM NDT 8:24 PM NDT
Astronomical Twilight 5:15 AM NDT 9:01 PM NDT
Moon 2:20 PM NDT (3/22) 4:14 AM NDT (3/22)
Length of Visible Light 13h 18m
Length of Day
12h 17m
Waxing Gibbous, 76% of the Moon is Illuminated
Mar 22
Waxing Gibbous
Mar 27
Full
Apr 3
Last Quarter
Apr 10
New
Apr 18
First Quarter

Hourly Weather History & Observations

Time (NDT) Temp. Windchill Dew Point Humidity Pressure Visibility Wind Dir Wind Speed Gust Speed Precip Events Conditions
12:30 AM 32.0 °F 20.5 °F 28.4 °F 87% 29.99 in 15.0 mi ESE 18.4 mph - N/A   Overcast
1:30 AM 32.0 °F 19.8 °F 28.4 °F 87% 29.94 in 15.0 mi ESE 20.7 mph 32.2 mph N/A   Overcast
2:30 AM 32.0 °F 20.1 °F 28.4 °F 87% 29.89 in 15.0 mi ESE 19.6 mph 28.8 mph N/A   Overcast
3:30 AM 31 °F - 27 °F 77% 29.81 in 15 mi East 21.9 mph - -   Overcast
3:30 AM 30.2 °F 16.8 °F 26.6 °F 86% 29.81 in 15.0 mi East 23.0 mph 33.4 mph N/A   Overcast
3:42 AM 30.2 °F 16.8 °F 26.6 °F 86% 29.82 in 15.0 mi ESE 23.0 mph 32.2 mph N/A Snow Light Snow
4:30 AM 30.2 °F 15.9 °F 26.6 °F 86% 29.78 in 15.0 mi ESE 26.5 mph 35.7 mph N/A Snow Light Snow
5:30 AM 30.2 °F 15.4 °F 28.4 °F 93% 29.72 in 1.5 mi ESE 28.8 mph 38.0 mph N/A Snow Light Snow
5:39 AM 30.2 °F 14.9 °F 28.4 °F 93% 29.70 in 0.5 mi ESE 31.1 mph 41.4 mph N/A Snow Snow
6:08 AM 30.2 °F 14.7 °F 28.4 °F 93% 29.67 in 2.0 mi ESE 32.2 mph 41.4 mph N/A Snow Light Snow
6:15 AM 30.2 °F 14.7 °F 28.4 °F 93% 29.67 in 0.5 mi ESE 32.2 mph 42.6 mph N/A Snow Light Snow
6:30 AM 30.2 °F 15.9 °F 28.4 °F 93% 29.64 in 1.2 mi ESE 26.5 mph 38.0 mph N/A Snow Light Snow
6:40 AM 30.2 °F 16.5 °F 28.4 °F 93% 29.62 in 3.0 mi East 24.2 mph 41.4 mph N/A Snow Light Snow
7:05 AM 30.2 °F 15.7 °F 30.2 °F 100% 29.60 in 3.0 mi East 27.6 mph 36.8 mph N/A Snow Light Snow
7:30 AM 30.2 °F 15.4 °F 30.2 °F 100% 29.54 in 3.0 mi East 28.8 mph 35.7 mph N/A Snow Light Snow
8:30 AM 32.0 °F 19.2 °F 32.0 °F 100% 29.54 in 1.5 mi ESE 23.0 mph 35.7 mph N/A Snow Light Snow
8:51 AM 32.0 °F 19.8 °F 32.0 °F 100% 29.53 in 0.8 mi ESE 20.7 mph 35.7 mph N/A Rain Rain
9:09 AM 32.0 °F 19.2 °F 32.0 °F 100% 29.52 in 2.0 mi ESE 23.0 mph 29.9 mph N/A Rain Light Rain
9:30 AM 33 °F - 33 °F 100% 29.50 in 1 mi ESE 21.9 mph - - Rain Light Rain
9:30 AM 33.8 °F 21.0 °F 33.8 °F 100% 29.50 in 1.5 mi ESE 25.3 mph 32.2 mph N/A Rain Light Rain
10:16 AM 33.8 °F 21.9 °F 33.8 °F 100% 29.48 in 0.5 mi SE 21.9 mph 32.2 mph N/A Fog , Rain Light Rain
10:30 AM 35.6 °F 23.7 °F 35.6 °F 100% 29.47 in 0.5 mi SE 24.2 mph 34.5 mph N/A Fog , Rain Light Rain
11:04 AM 33.8 °F 21.0 °F 33.8 °F 100% 29.46 in 0.2 mi SE 25.3 mph 36.8 mph N/A Fog , Rain Light Rain
11:30 AM 33.8 °F 21.9 °F 33.8 °F 100% 29.44 in 0.2 mi SE 21.9 mph 31.1 mph N/A Fog , Rain Light Rain
12:16 PM 35.6 °F 24.5 °F 35.6 °F 100% 29.44 in 2.0 mi SE 20.7 mph 26.5 mph N/A Rain Light Rain
12:30 PM 35.6 °F 24.8 °F 35.6 °F 100% 29.43 in 1.5 mi SE 19.6 mph 27.6 mph N/A Rain Light Rain
12:57 PM 35.6 °F 24.5 °F 35.6 °F 100% 29.44 in 0.5 mi SSE 20.7 mph - N/A Fog Light Drizzle
1:30 PM 35.6 °F 25.9 °F 35.6 °F 100% 29.44 in 0.2 mi SSE 16.1 mph 21.9 mph N/A Fog Light Drizzle
2:30 PM 39.2 °F 32.0 °F 39.2 °F 100% 29.41 in 0.2 mi South 11.5 mph - N/A Fog Fog
2:43 PM 41.0 °F 33.9 °F 41.0 °F 100% 29.39 in 10.0 mi South 12.7 mph - N/A   Mostly Cloudy
3:11 PM 42.8 °F 35.8 °F 41.0 °F 93% 29.39 in 15.0 mi South 13.8 mph - N/A   Mostly Cloudy
3:30 PM 44 °F - 40 °F 83% 29.40 in 15 mi SSW 12.7 mph - - Fog Light Fog
3:30 PM 44.6 °F 38.4 °F 41.0 °F 87% 29.39 in 15.0 mi SSW 12.7 mph - N/A   Scattered Clouds
4:30 PM 44.6 °F 39.7 °F 35.6 °F 71% 29.41 in 15.0 mi WSW 9.2 mph - N/A   Partly Cloudy
5:30 PM 41.0 °F 37.1 °F 30.2 °F 65% 29.42 in 15.0 mi WSW 5.8 mph - N/A   Scattered Clouds
6:30 PM 39.2 °F 37.0 °F 30.2 °F 70% 29.42 in 15.0 mi SW 3.5 mph - N/A   Overcast
7:30 PM 37.4 °F 30.8 °F 30.2 °F 75% 29.44 in 15.0 mi SW 9.2 mph - N/A   Mostly Cloudy
8:30 PM 33.8 °F 25.8 °F 28.4 °F 81% 29.46 in 15.0 mi WSW 10.4 mph - N/A   Mostly Cloudy
9:30 PM 33 °F - 30 °F 82% 29.48 in 15 mi WSW 10.4 mph - -   Overcast
9:30 PM 33.8 °F 25.8 °F 30.2 °F 87% 29.48 in 15.0 mi WSW 10.4 mph - N/A   Overcast
10:30 PM 32.0 °F 22.1 °F 28.4 °F 87% 29.47 in 15.0 mi West 13.8 mph - N/A   Overcast
11:30 PM 32.0 °F 21.2 °F 28.4 °F 87% 29.44 in 15.0 mi West 16.1 mph - N/A   Overcast